Cleveland, OH

9:16 PM EDT on September 29, 2016 (GMT -0400)
Burke Lakefront

Weather History for KBKL - September, 2012

Change the Weather History Date:

Sunday, September 30, 2012

  Actual Average Record
Temperature  
Mean Temperature 56 °F -  
Max Temperature 62 °F 66 °F 82 °F (2002)
Min Temperature 50 °F 51 °F 45 °F (2003)
Degree Days  
Heating Degree Days 9    
Growing Degree Days 6 (Base 50)    
Moisture  
Dew Point 47 °F    
Average Humidity 73    
Maximum Humidity 83    
Minimum Humidity 58    
Precipitation  
Precipitation 0.09 in - - ()
Sea Level Pressure  
Sea Level Pressure 29.90 in    
Wind  
Wind Speed 6 mph (East)    
Max Wind Speed 13 mph    
Max Gust Speed -    
Visibility 10 miles    
Events Rain    
Averages and records for this station are not official NWS values.
T = Trace of Precipitation, MM = Missing Value Source: NWS Daily Summary

Daily Weather History Graph

Daily Weather History Graph

Search for Another Location

Airport or City:

Trip Planner

Search our weather history database for the weather conditions in past years. The results will help you decide how hot, cold, wet, or windy it might be!

Date:

Astronomy

Sep. 30, 2012 Rise Set
Actual Time 7:22 AM EDT 7:09 PM EDT
Civil Twilight 6:55 AM EDT 7:36 PM EDT
Nautical Twilight 6:23 AM EDT 8:09 PM EDT
Astronomical Twilight 5:50 AM EDT 8:41 PM EDT
Moon 7:11 PM EDT 7:53 AM EDT
Length of Visible Light 12h 41m
Length of Day
11h 46m
Full, 100% of the Moon is Illuminated
Sep 30
Full
Oct 8
Last Quarter
Oct 15
New
Oct 21
First Quarter
Oct 29
Full

Hourly Weather History & Observations

Time (EDT) Temp. Dew Point Humidity Pressure Visibility Wind Dir Wind Speed Gust Speed Precip Events Conditions
12:53 AM 55.0 °F 48.0 °F 77% 29.92 in 10.0 mi ESE 3.5 mph - N/A   Overcast
1:53 AM 55.0 °F 46.0 °F 72% 29.91 in 10.0 mi SSE 5.8 mph - N/A   Mostly Cloudy
2:53 AM 54.0 °F 46.0 °F 75% 29.89 in 10.0 mi SSE 10.4 mph - N/A   Overcast
3:53 AM 52.0 °F 45.0 °F 77% 29.87 in 10.0 mi SSE 6.9 mph - N/A   Mostly Cloudy
4:53 AM 52.0 °F 45.0 °F 77% 29.87 in 10.0 mi SSE 9.2 mph - N/A   Scattered Clouds
5:53 AM 52.0 °F 44.1 °F 74% 29.87 in 10.0 mi SE 3.5 mph - N/A   Partly Cloudy
6:53 AM 52.0 °F 44.1 °F 74% 29.87 in 10.0 mi Calm Calm - N/A   Scattered Clouds
7:53 AM 50.0 °F 43.0 °F 77% 29.88 in 10.0 mi South 3.5 mph - N/A   Partly Cloudy
8:53 AM 54.0 °F 44.1 °F 69% 29.87 in 10.0 mi SSE 3.5 mph - N/A   Partly Cloudy
10:53 AM 55.0 °F 50.0 °F 83% 29.91 in 4.0 mi North 11.5 mph - 0.03 in Rain Rain
11:53 AM 57.0 °F 50.0 °F 77% 29.92 in 10.0 mi North 12.7 mph - 0.06 in   Mostly Cloudy
12:53 PM 61.0 °F 51.1 °F 70% 29.92 in 10.0 mi NE 8.1 mph - N/A   Mostly Cloudy
1:53 PM 62.1 °F 51.1 °F 67% 29.91 in 10.0 mi NNE 10.4 mph - N/A   Clear
2:53 PM 62.1 °F 50.0 °F 65% 29.90 in 10.0 mi North 9.2 mph - N/A   Clear
4:53 PM 61.0 °F 46.0 °F 58% 29.90 in 10.0 mi North 9.2 mph - N/A   Clear
5:53 PM 60.1 °F 48.9 °F 67% 29.91 in 10.0 mi NNE 9.2 mph - N/A   Clear
6:53 PM 57.0 °F 48.0 °F 72% 29.92 in 10.0 mi NE 6.9 mph - N/A   Clear
8:53 PM 55.0 °F 46.0 °F 72% 29.93 in 10.0 mi North 5.8 mph - N/A   Clear
9:53 PM 55.0 °F 46.9 °F 74% 29.94 in 10.0 mi East 3.5 mph - N/A   Clear
10:53 PM 54.0 °F 46.9 °F 77% 29.94 in 10.0 mi Calm Calm - N/A   Clear
11:53 PM 55.0 °F 48.0 °F 77% 29.93 in 10.0 mi Calm Calm - N/A   Mostly Cloudy